Time,TemperatureF,DewpointF,PressureIn,WindDirection,WindDirectionDegrees,WindSpeedMPH,WindSpeedGustMPH,Humidity,HourlyPrecipIn,Conditions,Clouds,dailyrainin,SoftwareType,DateUTC
2013-01-29 00:10:00,67.3,64.0,30.02,SSE,148,2.0,-999.0,89,-99.99,,,0.00,weatherlink.com 1.10,2013-01-29 06:10:00,
2013-01-29 00:25:00,67.1,64.0,30.01,SSE,160,2.0,-999.0,90,-99.99,,,0.00,weatherlink.com 1.10,2013-01-29 06:25:00,
2013-01-29 00:40:00,66.9,64.0,30.01,SE,127,2.0,-999.0,90,-99.99,,,0.00,weatherlink.com 1.10,2013-01-29 06:40:00,
2013-01-29 00:55:00,66.8,64.0,30.00,SE,134,2.0,-999.0,90,-99.99,,,0.00,weatherlink.com 1.10,2013-01-29 06:55:00,
2013-01-29 01:10:00,66.8,64.0,30.00,SSE,164,5.0,-999.0,91,-99.99,,,0.00,weatherlink.com 1.10,2013-01-29 07:10:00,
2013-01-29 01:25:00,66.8,64.0,29.99,SE,137,1.0,-999.0,91,-99.99,,,0.00,weatherlink.com 1.10,2013-01-29 07:25:00,
2013-01-29 01:40:00,66.8,64.0,29.98,ESE,104,5.0,-999.0,91,-99.99,,,0.00,weatherlink.com 1.10,2013-01-29 07:40:00,
2013-01-29 01:55:00,67.1,65.0,29.98,SE,136,4.0,-999.0,91,-99.99,,,0.00,weatherlink.com 1.10,2013-01-29 07:55:00,
2013-01-29 02:10:00,67.3,65.0,29.98,SE,140,8.0,-999.0,91,-99.99,,,0.00,weatherlink.com 1.10,2013-01-29 08:10:00,
2013-01-29 02:25:00,67.3,65.0,29.98,SE,134,2.0,-999.0,91,-99.99,,,0.00,weatherlink.com 1.10,2013-01-29 08:25:00,
2013-01-29 02:40:00,67.1,65.0,29.97,SE,134,5.0,-999.0,91,-99.99,,,0.00,weatherlink.com 1.10,2013-01-29 08:40:00,
2013-01-29 02:55:00,67.1,65.0,29.97,SSE,155,4.0,-999.0,91,-99.99,,,0.00,weatherlink.com 1.10,2013-01-29 08:55:00,
2013-01-29 03:10:00,67.1,65.0,29.96,SE,128,5.0,-999.0,91,-99.99,,,0.00,weatherlink.com 1.10,2013-01-29 09:10:00,
2013-01-29 03:25:00,67.1,65.0,29.95,SSE,147,2.0,-999.0,91,-99.99,,,0.00,weatherlink.com 1.10,2013-01-29 09:25:00,
2013-01-29 03:40:00,67.3,64.0,29.95,SSE,157,3.0,-999.0,90,-99.99,,,0.00,weatherlink.com 1.10,2013-01-29 09:40:00,
2013-01-29 03:55:00,67.4,65.0,29.95,SE,144,3.0,-999.0,90,-99.99,,,0.00,weatherlink.com 1.10,2013-01-29 09:55:00,
2013-01-29 04:10:00,67.4,65.0,29.94,SSE,147,5.0,-999.0,90,-99.99,,,0.00,weatherlink.com 1.10,2013-01-29 10:10:00,
2013-01-29 04:25:00,67.4,65.0,29.93,South,179,5.0,-999.0,90,-99.99,,,0.00,weatherlink.com 1.10,2013-01-29 10:25:00,
2013-01-29 04:40:00,67.6,65.0,29.93,South,182,5.0,-999.0,90,-99.99,,,0.00,weatherlink.com 1.10,2013-01-29 10:40:00,
2013-01-29 04:55:00,67.8,65.0,29.92,SE,145,5.0,-999.0,90,-99.99,,,0.00,weatherlink.com 1.10,2013-01-29 10:55:00,
2013-01-29 05:10:00,67.8,65.0,29.92,SSE,158,4.0,-999.0,89,-99.99,,,0.00,weatherlink.com 1.10,2013-01-29 11:10:00,
2013-01-29 05:25:00,67.6,64.0,29.91,South,182,5.0,-999.0,89,-99.99,,,0.00,weatherlink.com 1.10,2013-01-29 11:25:00,
2013-01-29 05:40:00,67.6,64.0,29.92,SE,145,10.0,-999.0,89,-99.99,,,0.00,weatherlink.com 1.10,2013-01-29 11:40:00,
2013-01-29 05:55:00,67.6,64.0,29.92,SSW,195,5.0,-999.0,89,-99.99,,,0.00,weatherlink.com 1.10,2013-01-29 11:55:00,
2013-01-29 06:10:00,67.6,64.0,29.92,SE,143,2.0,-999.0,89,-99.99,,,0.00,weatherlink.com 1.10,2013-01-29 12:10:00,
2013-01-29 06:25:00,67.6,64.0,29.92,ESE,119,1.0,-999.0,89,-99.99,,,0.00,weatherlink.com 1.10,2013-01-29 12:25:00,
2013-01-29 06:40:00,67.4,64.0,29.92,SSE,152,1.0,-999.0,89,-99.99,,,0.00,weatherlink.com 1.10,2013-01-29 12:40:00,
2013-01-29 06:55:00,67.3,64.0,29.92,SSE,147,2.0,-999.0,90,-99.99,,,0.00,weatherlink.com 1.10,2013-01-29 12:55:00,
2013-01-29 07:10:00,67.3,64.0,29.92,SSE,148,0.0,-999.0,90,-99.99,,,0.00,weatherlink.com 1.10,2013-01-29 13:10:00,
2013-01-29 07:25:00,67.1,64.0,29.91,SSE,148,2.0,-999.0,90,-99.99,,,0.00,weatherlink.com 1.10,2013-01-29 13:25:00,
2013-01-29 07:40:00,67.1,64.0,29.91,SSE,162,2.0,-999.0,90,-99.99,,,0.00,weatherlink.com 1.10,2013-01-29 13:40:00,
2013-01-29 07:55:00,67.3,64.0,29.92,SSE,155,0.0,-999.0,90,-99.99,,,0.00,weatherlink.com 1.10,2013-01-29 13:55:00,
2013-01-29 08:10:00,67.4,65.0,29.92,SSE,152,1.0,-999.0,90,-99.99,,,0.00,weatherlink.com 1.10,2013-01-29 14:10:00,
2013-01-29 08:25:00,67.9,65.0,29.92,SSE,147,1.0,-999.0,90,-99.99,,,0.00,weatherlink.com 1.10,2013-01-29 14:25:00,
2013-01-29 08:40:00,68.3,65.0,29.93,SE,143,1.0,-999.0,90,-99.99,,,0.00,weatherlink.com 1.10,2013-01-29 14:40:00,
2013-01-29 08:55:00,68.4,65.0,29.93,SE,136,0.0,-999.0,89,-99.99,,,0.00,weatherlink.com 1.10,2013-01-29 14:55:00,
2013-01-29 09:10:00,68.6,65.0,29.92,SSE,147,2.0,-999.0,89,-99.99,,,0.00,weatherlink.com 1.10,2013-01-29 15:10:00,
2013-01-29 09:25:00,68.6,65.0,29.92,SSE,158,2.0,-999.0,89,-99.99,,,0.00,weatherlink.com 1.10,2013-01-29 15:25:00,
2013-01-29 09:40:00,68.8,65.0,29.92,SE,137,6.0,-999.0,88,-99.99,,,0.00,weatherlink.com 1.10,2013-01-29 15:40:00,
2013-01-29 09:55:00,68.9,65.0,29.91,SSE,167,3.0,-999.0,88,-99.99,,,0.00,weatherlink.com 1.10,2013-01-29 15:55:00,
2013-01-29 10:10:00,69.6,66.0,29.91,SSE,167,6.0,-999.0,87,-99.99,,,0.00,weatherlink.com 1.10,2013-01-29 16:10:00,
2013-01-29 10:25:00,70.4,66.0,29.91,SSE,154,6.0,-999.0,86,-99.99,,,0.00,weatherlink.com 1.10,2013-01-29 16:25:00,
2013-01-29 10:40:00,70.8,66.0,29.90,SE,141,3.0,-999.0,84,-99.99,,,0.00,weatherlink.com 1.10,2013-01-29 16:40:00,
2013-01-29 10:55:00,71.5,66.0,29.89,South,174,5.0,-999.0,83,-99.99,,,0.00,weatherlink.com 1.10,2013-01-29 16:55:00,
2013-01-29 11:10:00,72.7,66.0,29.88,South,178,5.0,-999.0,80,-99.99,,,0.00,weatherlink.com 1.10,2013-01-29 17:10:00,
2013-01-29 11:25:00,73.7,66.0,29.86,SSE,160,9.0,-999.0,78,-99.99,,,0.00,weatherlink.com 1.10,2013-01-29 17:25:00,
2013-01-29 11:40:00,73.7,66.0,29.85,SSE,152,9.0,-999.0,78,-99.99,,,0.00,weatherlink.com 1.10,2013-01-29 17:40:00,
2013-01-29 11:55:00,73.9,66.0,29.85,SSE,165,3.0,-999.0,77,-99.99,,,0.00,weatherlink.com 1.10,2013-01-29 17:55:00,
2013-01-29 12:10:00,75.3,67.0,29.83,SE,136,6.0,-999.0,75,-99.99,,,0.00,weatherlink.com 1.10,2013-01-29 18:10:00,
2013-01-29 12:25:00,75.6,67.0,29.81,SSW,192,20.0,-999.0,74,-99.99,,,0.00,weatherlink.com 1.10,2013-01-29 18:25:00,
2013-01-29 12:40:00,77.2,68.0,29.79,South,181,16.0,-999.0,72,-99.99,,,0.00,weatherlink.com 1.10,2013-01-29 18:40:00,
2013-01-29 12:55:00,76.5,67.0,29.78,South,184,10.0,-999.0,72,-99.99,,,0.00,weatherlink.com 1.10,2013-01-29 18:55:00,
2013-01-29 13:10:00,76.3,67.0,29.76,SSE,150,6.0,-999.0,73,-99.99,,,0.00,weatherlink.com 1.10,2013-01-29 19:10:00,
2013-01-29 13:25:00,77.0,67.0,29.75,SSE,150,6.0,-999.0,71,-99.99,,,0.00,weatherlink.com 1.10,2013-01-29 19:25:00,
2013-01-29 13:40:00,77.0,67.0,29.74,SE,138,8.0,-999.0,70,-99.99,,,0.00,weatherlink.com 1.10,2013-01-29 19:40:00,
2013-01-29 13:55:00,76.8,66.0,29.73,East,99,16.0,-999.0,70,-99.99,,,0.00,weatherlink.com 1.10,2013-01-29 19:55:00,
2013-01-29 14:10:00,76.5,66.0,29.74,SSE,157,10.0,-999.0,71,-99.99,,,0.00,weatherlink.com 1.10,2013-01-29 20:10:00,
2013-01-29 14:25:00,75.8,67.0,29.74,South,172,13.0,-999.0,75,-99.99,,,0.00,weatherlink.com 1.10,2013-01-29 20:25:00,
2013-01-29 14:40:00,74.4,68.0,29.72,SSE,151,7.0,-999.0,80,-99.99,,,0.02,weatherlink.com 1.10,2013-01-29 20:40:00,
2013-01-29 14:55:00,73.9,68.0,29.72,SSE,155,7.0,-999.0,82,-99.99,,,0.02,weatherlink.com 1.10,2013-01-29 20:55:00,
2013-01-29 15:10:00,73.9,68.0,29.71,SSE,147,6.0,-999.0,82,-99.99,,,0.03,weatherlink.com 1.10,2013-01-29 21:10:00,
2013-01-29 15:25:00,73.5,68.0,29.70,SSW,196,7.0,-999.0,84,-99.99,,,0.04,weatherlink.com 1.10,2013-01-29 21:25:00,
2013-01-29 15:40:00,73.5,69.0,29.69,South,185,2.0,-999.0,85,-99.99,,,0.04,weatherlink.com 1.10,2013-01-29 21:40:00,
2013-01-29 15:55:00,73.7,69.0,29.69,South,171,8.0,-999.0,86,-99.99,,,0.04,weatherlink.com 1.10,2013-01-29 21:55:00,
2013-01-29 16:10:00,73.7,69.0,29.68,SSE,154,6.0,-999.0,86,-99.99,,,0.04,weatherlink.com 1.10,2013-01-29 22:10:00,
2013-01-29 16:25:00,73.5,70.0,29.68,SSE,157,7.0,-999.0,87,-99.99,,,0.04,weatherlink.com 1.10,2013-01-29 22:25:00,
2013-01-29 16:40:00,73.0,69.0,29.68,SSE,155,2.0,-999.0,88,-99.99,,,0.04,weatherlink.com 1.10,2013-01-29 22:40:00,
2013-01-29 16:55:00,72.8,70.0,29.66,SSE,160,7.0,-999.0,89,-99.99,,,0.04,weatherlink.com 1.10,2013-01-29 22:55:00,
2013-01-29 17:10:00,72.7,70.0,29.66,South,172,8.0,-999.0,90,-99.99,,,0.05,weatherlink.com 1.10,2013-01-29 23:10:00,
2013-01-29 17:25:00,72.7,70.0,29.66,SSW,195,5.0,-999.0,90,-99.99,,,0.05,weatherlink.com 1.10,2013-01-29 23:25:00,
2013-01-29 17:40:00,72.7,70.0,29.65,ESE,106,3.0,-999.0,90,-99.99,,,0.05,weatherlink.com 1.10,2013-01-29 23:40:00,
2013-01-29 17:55:00,72.8,70.0,29.65,SSE,157,6.0,-999.0,90,-99.99,,,0.05,weatherlink.com 1.10,2013-01-29 23:55:00,
2013-01-29 18:10:00,72.8,70.0,29.64,SSE,155,8.0,-999.0,90,-99.99,,,0.05,weatherlink.com 1.10,2013-01-30 00:10:00,
2013-01-29 18:25:00,73.2,70.0,29.64,SE,124,4.0,-999.0,89,-99.99,,,0.05,weatherlink.com 1.10,2013-01-30 00:25:00,
2013-01-29 18:40:00,73.3,70.0,29.64,SSE,161,20.0,-999.0,88,-99.99,,,0.05,weatherlink.com 1.10,2013-01-30 00:40:00,
2013-01-29 18:55:00,73.7,70.0,29.64,South,169,12.0,-999.0,87,-99.99,,,0.05,weatherlink.com 1.10,2013-01-30 00:55:00,
2013-01-29 19:10:00,73.5,70.0,29.63,SSE,151,10.0,-999.0,87,-99.99,,,0.06,weatherlink.com 1.10,2013-01-30 01:10:00,
2013-01-29 19:25:00,73.2,69.0,29.63,South,182,6.0,-999.0,87,-99.99,,,0.06,weatherlink.com 1.10,2013-01-30 01:25:00,
2013-01-29 19:40:00,73.0,69.0,29.63,SE,140,16.0,-999.0,87,-99.99,,,0.06,weatherlink.com 1.10,2013-01-30 01:40:00,
2013-01-29 19:55:00,73.2,69.0,29.62,SSE,157,12.0,-999.0,87,-99.99,,,0.06,weatherlink.com 1.10,2013-01-30 01:55:00,
2013-01-29 20:10:00,73.3,69.0,29.62,South,171,5.0,-999.0,86,-99.99,,,0.06,weatherlink.com 1.10,2013-01-30 02:10:00,
2013-01-29 20:25:00,73.5,69.0,29.62,ESE,121,11.0,-999.0,85,-99.99,,,0.06,weatherlink.com 1.10,2013-01-30 02:25:00,
2013-01-29 20:40:00,73.7,69.0,29.62,SSE,167,12.0,-999.0,84,-99.99,,,0.06,weatherlink.com 1.10,2013-01-30 02:40:00,
2013-01-29 20:55:00,73.5,69.0,29.62,SSE,151,10.0,-999.0,85,-99.99,,,0.06,weatherlink.com 1.10,2013-01-30 02:55:00,
2013-01-29 21:10:00,73.5,68.0,29.62,South,178,12.0,-999.0,84,-99.99,,,0.06,weatherlink.com 1.10,2013-01-30 03:10:00,
2013-01-29 21:25:00,73.3,68.0,29.61,South,185,5.0,-999.0,84,-99.99,,,0.06,weatherlink.com 1.10,2013-01-30 03:25:00,
2013-01-29 21:40:00,73.7,68.0,29.62,South,174,5.0,-999.0,83,-99.99,,,0.06,weatherlink.com 1.10,2013-01-30 03:40:00,
2013-01-29 21:55:00,74.0,68.0,29.62,South,179,8.0,-999.0,81,-99.99,,,0.06,weatherlink.com 1.10,2013-01-30 03:55:00,
2013-01-29 22:10:00,74.0,68.0,29.62,WSW,241,6.0,-999.0,81,-99.99,,,0.06,weatherlink.com 1.10,2013-01-30 04:10:00,
2013-01-29 22:25:00,74.0,68.0,29.64,SW,223,9.0,-999.0,81,-99.99,,,0.06,weatherlink.com 1.10,2013-01-30 04:25:00,
2013-01-29 22:40:00,73.9,67.0,29.63,SE,138,10.0,-999.0,80,-99.99,,,0.06,weatherlink.com 1.10,2013-01-30 04:40:00,
2013-01-29 22:55:00,73.9,67.0,29.63,South,176,6.0,-999.0,80,-99.99,,,0.06,weatherlink.com 1.10,2013-01-30 04:55:00,
2013-01-29 23:10:00,73.3,68.0,29.63,South,174,6.0,-999.0,82,-99.99,,,0.01,weatherlink.com 1.10,2013-01-30 05:10:00,
2013-01-29 23:25:00,73.3,68.0,29.63,SSE,168,5.0,-999.0,82,-99.99,,,0.01,weatherlink.com 1.10,2013-01-30 05:25:00,
2013-01-29 23:40:00,73.0,68.0,29.62,SE,143,12.0,-999.0,83,-99.99,,,0.01,weatherlink.com 1.10,2013-01-30 05:40:00,
2013-01-29 23:55:00,72.8,68.0,29.62,SSW,198,0.0,-999.0,84,-99.99,,,0.01,weatherlink.com 1.10,2013-01-30 05:55:00,